7 * 24
多渠道服务支持
STARLINK-34248是由美国于2025年7月26日发射的SpaceX星链卫星,属于星链星座组网计划的一环。星链系统旨在构建全球卫星互联网,为偏远地区、海洋航空等场景提供宽带通信服务,该卫星入轨后将补充星链星座的通信覆盖能力,推进星座部署进程。
美国
(US)
| 数据来源 | 国际轨道数据 |
| 星历时间: | 2026-09-03T17:25:43+0800 1天前 查看轨道信息 |
| 半长轴: | 6840.824km |
| 偏心率: | 0.0001452 |
| 轨道倾角: | 53.157° |
| 近地点辐角 | 74.411° |
| 升交点赤经 | 237.933° |
| 平近点角 | 285.705° |
| 近地点: | 461.693km |
| 远地点: | 463.681km |
| 周期: | 93.847分钟 |
| 每日圈数: | 15.344056 |